| time (UTC) | temp F | wind direction | speed MPH | gust MPH | rain 1hr in | rain 24hr in | rain mn in | humidity % | barometer mb |
| 20260506170037 | 64 | 0 | 1.0 | 5.0 | 0.00 | 0.08 | 0.08 | 89 | 1011.1 |
| 20260506164517 | 64 | 0 | 1.0 | 3.0 | 0.00 | 0.08 | 0.08 | 89 | 1011.4 |
| 20260506163017 | 64 | 0.0 | 2.0 | 0.00 | 0.08 | 0.08 | 91 | 1011.8 | |
| 20260506161537 | 63 | 0 | 1.0 | 4.0 | 0.00 | 0.08 | 0.08 | 90 | 1011.4 |
| 20260506160017 | 63 | 0 | 1.0 | 4.0 | 0.00 | 0.08 | 0.08 | 90 | 1011.5 |
| 20260506154517 | 63 | 0 | 1.0 | 4.0 | 0.01 | 0.08 | 0.08 | 90 | 1011.2 |
| 20260506153017 | 63 | 0 | 1.0 | 4.0 | 0.03 | 0.08 | 0.08 | 90 | 1011.9 |
| 20260506151517 | 62 | 0.0 | 2.0 | 0.05 | 0.08 | 0.08 | 89 | 1012.1 | |
| 20260506150017 | 62 | 0 | 1.0 | 6.0 | 0.06 | 0.08 | 0.08 | 88 | 1012.5 |
| 20260506144516 | 63 | 0 | 1.0 | 3.0 | 0.07 | 0.07 | 0.07 | 86 | 1012.4 |
| 20260506143017 | 63 | 0.0 | 2.0 | 0.05 | 0.05 | 0.05 | 85 | 1012.7 | |
| 20260506141537 | 64 | 0 | 1.0 | 3.0 | 0.03 | 0.03 | 0.03 | 84 | 1012.4 |
| 20260506140017 | 64 | 0 | 1.0 | 3.0 | 0.02 | 0.02 | 0.02 | 81 | 1012.0 |
| 20260506134516 | 64 | 0 | 1.0 | 6.0 | 0.00 | 0.00 | 0.00 | 78 | 1012.3 |
| 20260506133016 | 64 | 0 | 1.0 | 4.0 | 0.00 | 0.00 | 0.00 | 79 | 1012.1 |
| 20260506131516 | 64 | 0 | 1.0 | 3.0 | 0.00 | 0.00 | 0.00 | 79 | 1012.1 |
| 20260506130016 | 65 | 0 | 1.0 | 8.0 | 0.00 | 0.00 | 0.00 | 80 | 1011.9 |
| 20260506124556 | 65 | 0 | 1.0 | 3.0 | 0.00 | 0.00 | 0.00 | 77 | 1012.1 |
| 20260506123016 | 65 | 0 | 1.0 | 4.0 | 0.00 | 0.00 | 0.00 | 75 | 1012.0 |
| 20260506121516 | 65 | 0 | 1.0 | 6.0 | 0.00 | 0.00 | 0.00 | 74 | 1011.9 |
| 20260506120016 | 64 | 0 | 1.0 | 3.0 | 0.00 | 0.00 | 0.00 | 75 | 1011.8 |
| 20260506114516 | 64 | 0 | 1.0 | 4.0 | 0.00 | 0.00 | 0.00 | 75 | 1011.9 |
| 20260506113016 | 64 | 0 | 1.0 | 6.0 | 0.00 | 0.00 | 0.00 | 75 | 1011.9 |
| 20260506111517 | 64 | 0 | 1.0 | 4.0 | 0.00 | 0.00 | 0.00 | 75 | 1011.8 |
| 20260506110016 | 63 | 0 | 1.0 | 4.0 | 0.00 | 0.00 | 0.00 | 74 | 1011.9 |
| 20260506104517 | 63 | 0 | 1.0 | 4.0 | 0.00 | 0.00 | 0.00 | 74 | 1011.8 |
| 20260506103016 | 63 | 0 | 1.0 | 3.0 | 0.00 | 0.00 | 0.00 | 74 | 1012.0 |
| 20260506101516 | 63 | 0 | 1.0 | 5.0 | 0.00 | 0.00 | 0.00 | 74 | 1011.9 |
| 20260506100016 | 63 | 0 | 1.0 | 4.0 | 0.00 | 0.00 | 0.00 | 75 | 1011.8 |
| 20260506094516 | 63 | 0 | 1.0 | 4.0 | 0.00 | 0.00 | 0.00 | 75 | 1011.7 |
| 20260506093036 | 64 | 0 | 1.0 | 5.0 | 0.00 | 0.00 | 0.00 | 75 | 1011.6 |
| 20260506091516 | 64 | 0 | 1.0 | 3.0 | 0.00 | 0.00 | 0.00 | 76 | 1011.7 |
| 20260506090036 | 64 | 0 | 1.0 | 4.0 | 0.00 | 0.00 | 0.00 | 75 | 1011.8 |
| 20260506084536 | 64 | 0 | 1.0 | 5.0 | 0.00 | 0.00 | 0.00 | 75 | 1011.9 |
| 20260506083016 | 64 | 0 | 1.0 | 6.0 | 0.00 | 0.00 | 0.00 | 74 | 1012.1 |
| 20260506081536 | 64 | 0 | 1.0 | 8.0 | 0.00 | 0.00 | 0.00 | 74 | 1012.0 |
| 20260506073016 | 65 | 0 | 1.0 | 6.0 | 0.00 | 0.00 | 0.00 | 72 | 1012.2 |
| 20260506071516 | 65 | 0 | 1.0 | 6.0 | 0.00 | 0.00 | 0.00 | 72 | 1012.3 |
| 20260506061536 | 66 | 0 | 1.0 | 6.0 | 0.00 | 0.00 | 0.00 | 70 | 1012.5 |
| 20260506044536 | 69 | 248 | 1.0 | 8.0 | 0.00 | 0.00 | 0.00 | 65 | 1013.2 |
| 20260506043015 | 69 | 180 | 1.0 | 5.0 | 0.00 | 0.00 | 0.00 | 64 | 1013.2 |
| 20260506041515 | 69 | 180 | 1.0 | 6.0 | 0.00 | 0.00 | 0.00 | 62 | 1013.2 |
| 20260506040055 | 70 | 203 | 1.0 | 9.0 | 0.00 | 0.00 | 0.00 | 60 | 1013.2 |
| 20260506034536 | 70 | 225 | 1.0 | 4.0 | 0.00 | 0.00 | 0.00 | 59 | 1013.0 |
| 20260506033016 | 70 | 225 | 1.0 | 7.0 | 0.00 | 0.00 | 0.00 | 58 | 1013.0 |
| 20260506031516 | 71 | 248 | 1.0 | 3.0 | 0.00 | 0.00 | 0.00 | 58 | 1013.0 |
| 20260506030016 | 71 | 225 | 1.0 | 6.0 | 0.00 | 0.00 | 0.00 | 56 | 1013.0 |
| 20260506024516 | 71 | 225 | 1.0 | 8.0 | 0.00 | 0.00 | 0.00 | 56 | 1012.9 |
| 20260506023016 | 71 | 180 | 1.0 | 5.0 | 0.00 | 0.00 | 0.00 | 55 | 1013.0 |
| 20260506021516 | 71 | 225 | 1.0 | 3.0 | 0.00 | 0.00 | 0.00 | 55 | 1013.0 |
| 20260506020016 | 72 | 248 | 1.0 | 7.0 | 0.00 | 0.00 | 0.00 | 54 | 1012.9 |
| 20260506014516 | 72 | 180 | 1.0 | 6.0 | 0.00 | 0.00 | 0.00 | 53 | 1012.7 |
| 20260506013016 | 72 | 203 | 1.0 | 7.0 | 0.00 | 0.00 | 0.00 | 52 | 1012.7 |
| 20260506011536 | 73 | 158 | 1.0 | 8.0 | 0.00 | 0.00 | 0.00 | 52 | 1012.4 |
| 20260506010016 | 73 | 180 | 1.0 | 6.0 | 0.00 | 0.00 | 0.00 | 51 | 1012.4 |
| 20260506004516 | 74 | 225 | 1.0 | 3.0 | 0.00 | 0.00 | 0.00 | 50 | 1012.2 |
| 20260506003016 | 75 | 158 | 1.0 | 8.0 | 0.00 | 0.00 | 0.00 | 48 | 1012.1 |
| 20260506001515 | 75 | 158 | 1.0 | 3.0 | 0.00 | 0.00 | 0.00 | 48 | 1011.9 |
| 20260506000015 | 76 | 68 | 1.0 | 2.0 | 0.00 | 0.00 | 0.00 | 45 | 1011.8 |
| 20260505234516 | 76 | 225 | 1.0 | 5.0 | 0.00 | 0.00 | 0.00 | 44 | 1011.7 |
| 20260505233016 | 77 | 225 | 1.0 | 6.0 | 0.00 | 0.00 | 0.00 | 43 | 1011.7 |
| 20260505231515 | 78 | 158 | 1.0 | 7.0 | 0.00 | 0.00 | 0.00 | 41 | 1011.7 |
| 20260505230016 | 79 | 158 | 1.0 | 5.0 | 0.00 | 0.00 | 0.00 | 40 | 1011.7 |
| 20260505224515 | 80 | 180 | 1.0 | 4.0 | 0.00 | 0.00 | 0.00 | 37 | 1011.7 |
| 20260505223016 | 81 | 68 | 1.0 | 5.0 | 0.00 | 0.00 | 0.00 | 35 | 1011.8 |
| 20260505221515 | 81 | 248 | 1.0 | 4.0 | 0.00 | 0.00 | 0.00 | 35 | 1011.8 |
| 20260505220015 | 81 | 270 | 2.0 | 8.0 | 0.00 | 0.00 | 0.00 | 34 | 1011.6 |
| 20260505214515 | 81 | 270 | 2.0 | 7.0 | 0.00 | 0.00 | 0.00 | 33 | 1011.5 |
| 20260505213015 | 81 | 225 | 2.0 | 5.0 | 0.00 | 0.00 | 0.00 | 34 | 1011.4 |
| 20260505211515 | 81 | 225 | 1.0 | 5.0 | 0.00 | 0.00 | 0.00 | 34 | 1011.4 |
| 20260505210015 | 81 | 225 | 2.0 | 11.0 | 0.00 | 0.00 | 0.00 | 35 | 1011.5 |
| 20260505204515 | 82 | 225 | 2.0 | 7.0 | 0.00 | 0.00 | 0.00 | 33 | 1011.4 |
| 20260505203015 | 83 | 225 | 2.0 | 5.0 | 0.00 | 0.00 | 0.00 | 32 | 1011.4 |
| 20260505201515 | 83 | 248 | 2.0 | 12.0 | 0.00 | 0.00 | 0.00 | 31 | 1011.4 |
| 20260505200015 | 83 | 225 | 2.0 | 9.0 | 0.00 | 0.00 | 0.00 | 32 | 1011.7 |
| 20260505194535 | 83 | 203 | 2.0 | 7.0 | 0.00 | 0.00 | 0.00 | 30 | 1011.8 |
| 20260505193017 | 84 | 225 | 1.0 | 5.0 | 0.00 | 0.00 | 0.00 | 33 | 1012.0 |
| 20260505191538 | 83 | 248 | 2.0 | 8.0 | 0.00 | 0.00 | 0.00 | 30 | 1012.1 |
| 20260505190017 | 83 | 225 | 2.0 | 9.0 | 0.00 | 0.00 | 0.00 | 30 | 1012.6 |
| 20260505184537 | 82 | 225 | 2.0 | 6.0 | 0.00 | 0.00 | 0.00 | 33 | 1012.6 |
| 20260505183017 | 82 | 338 | 2.0 | 9.0 | 0.00 | 0.00 | 0.00 | 34 | 1012.8 |
| 20260505181537 | 81 | 248 | 2.0 | 6.0 | 0.00 | 0.00 | 0.00 | 35 | 1013.0 |
| 20260505180017 | 81 | 293 | 2.0 | 7.0 | 0.00 | 0.00 | 0.00 | 37 | 1013.1 |
| 20260505174517 | 81 | 315 | 2.0 | 8.0 | 0.00 | 0.00 | 0.00 | 38 | 1013.2 |
| 20260505173017 | 80 | 225 | 2.0 | 6.0 | 0.00 | 0.00 | 0.00 | 40 | 1013.5 |
| 20260505171557 | 80 | 338 | 2.0 | 6.0 | 0.00 | 0.00 | 0.00 | 40 | 1013.5 |